Regional Weather Roundup
Issued by NWS

Home | Current Version | Previous Version | Graphics & Text | Print | Product List | Glossary On
Versions: 1 2 3 4 5 6 7 8 9 10 11 12 13 14 15 16 17 18 19 20 21 22 23 24 25 26 27 28 29 30 31 32 33 34 35 36 37 38 39 40 41 42 43 44 45 46 47 48 49 50
000
ASUS44 KMEG 240410
RWRTN
TENNESSEE HOURLY STATE WEATHER ROUNDUP
NATIONAL WEATHER SERVICE MEMPHIS TN
1100 PM CDT SAT MAY 23 2015

TNZ002-004-019-021-049-052-054-088>092-240500-
WEST TENNESSEE

CITY           SKY/WX    TMP DP  RH WIND       PRES   REMARKS
MEMPHIS INTL   PTCLDY    75  57  53 SE6       30.13F
NWS MEMPHIS      N/A     71 N/A N/A MISG        N/A
JACKSON        PTCLDY    68  59  73 VRB3      30.17S
DYERSBURG      MOCLDY    70  48  46 SE3       30.16F
PARIS          CLEAR     66  55  68 SE7       30.19S
LEXINGTON      CLEAR     66  57  72 E3        30.18S
$$

TNZ008-025-027-028-033-062-065-066-240500-
NORTH MIDDLE TENNESSEE

CITY           SKY/WX    TMP DP  RH WIND       PRES   REMARKS
NASHVILLE      PTCLDY    68  57  68 CALM      30.24S
CLARKSVILLE    CLEAR     64  56  75 CALM      30.21F
SMYRNA         CLEAR     64  57  78 CALM      30.25S
COOKEVILLE     CLEAR     57  54  88 CALM      30.28S
CROSSVILLE     PTCLDY    64  51  62 S5        30.33S
$$

TNZ061-075-076-078-094-096-097-240500-
SOUTH MIDDLE TENNESSEE

CITY           SKY/WX    TMP DP  RH WIND       PRES   REMARKS
FAYETTEVILLE   CLEAR    N/A N/A N/A MISG      30.25F
TULLAHOMA      CLEAR     63  54  72 CALM      30.28S
WINCHESTER     CLEAR     66  54  63 CALM      30.27F
MCMINNVILLE    CLEAR     61  55  82 CALM      30.28F
COLUMBIA       CLEAR     64  57  77 SE3       30.21F
SHELBYVILLE    CLEAR     64  57  77 SE5       30.26F
$$

TNZ017-018-042-046-047-240500-
NORTHEAST TENNESSEE

CITY           SKY/WX    TMP DP  RH WIND       PRES   REMARKS
TRI CITIES     PTCLDY    57  50  77 CALM      30.35R
ELIZABETHTON   CLEAR     54  48  82 CALM      30.36S
$$

TNZ012-013-036-069-073-074-240500-
CENTRAL EAST TENNESSEE

CITY           SKY/WX    TMP DP  RH WIND       PRES   REMARKS
KNOXVILLE      PTCLDY    68  56  65 SE3       30.29S
OAK RIDGE      CLEAR     65  55  70 CALM      30.31S
GATLINBURG     CLEAR     61  54  77 CALM      30.30S
MORRISTOWN     CLEAR     64  54  68 CALM      30.33R
$$

TNZ083-085-099-240500-
SOUTHEAST TENNESSEE

CITY           SKY/WX    TMP DP  RH WIND       PRES   REMARKS
CHATTANOOGA    PTCLDY    70  49  47 CALM      30.29S
$$

SKY/WX REPORTED AS FAIR MEANS FEW OR NO CLOUDS BELOW
12 THOUSAND FEET.




USA.gov is the U.S. government's official web portal to all federal, state and local government web resources and services.